Time,TemperatureF,DewpointF,PressureIn,WindDirection,WindDirectionDegrees,WindSpeedMPH,WindSpeedGustMPH,Humidity,HourlyPrecipIn,Conditions,Clouds,dailyrainin,SoftwareType,DateUTC
2013-10-20 00:02:00,30.0,25.0,29.67,SE,135,3.0,4.0,81,0.00,,,0.00,meteohub,2013-10-20 05:02:00,
2013-10-20 00:07:00,30.0,25.2,29.67,South,180,3.0,4.0,82,0.00,,,0.00,meteohub,2013-10-20 05:07:00,
2013-10-20 00:12:00,30.0,25.2,29.68,SE,135,3.0,4.0,82,0.00,,,0.00,meteohub,2013-10-20 05:12:00,
2013-10-20 00:17:00,30.0,25.2,29.67,SSE,158,3.0,3.0,82,0.00,,,0.00,meteohub,2013-10-20 05:17:00,
2013-10-20 00:22:00,30.0,25.2,29.66,SE,135,3.0,6.0,82,0.00,,,0.00,meteohub,2013-10-20 05:22:00,
2013-10-20 00:27:00,30.0,25.2,29.66,SE,135,4.0,6.0,82,0.00,,,0.00,meteohub,2013-10-20 05:27:00,
2013-10-20 00:32:00,30.2,25.2,29.66,SE,135,4.0,6.0,81,0.00,,,0.00,meteohub,2013-10-20 05:32:00,
2013-10-20 00:37:00,30.4,25.3,29.66,SE,135,4.0,4.0,81,0.00,,,0.00,meteohub,2013-10-20 05:37:00,
2013-10-20 00:42:00,30.6,25.3,29.65,South,180,4.0,4.0,81,0.00,,,0.00,meteohub,2013-10-20 05:42:00,
2013-10-20 00:47:00,30.6,25.7,29.66,South,180,4.0,4.0,82,0.00,,,0.00,meteohub,2013-10-20 05:47:00,
2013-10-20 00:52:00,30.7,25.9,29.65,South,180,4.0,4.0,82,0.00,,,0.00,meteohub,2013-10-20 05:52:00,
2013-10-20 00:57:00,31.1,26.2,29.65,SE,135,4.0,4.0,82,0.00,,,0.00,meteohub,2013-10-20 05:57:00,
2013-10-20 01:02:00,31.5,26.6,29.65,South,180,4.0,4.0,82,0.00,,,0.00,meteohub,2013-10-20 06:02:00,
2013-10-20 01:08:00,31.6,26.8,29.64,South,180,4.0,4.0,82,0.00,,,0.00,meteohub,2013-10-20 06:08:00,
2013-10-20 01:13:00,32.0,26.8,29.65,South,180,4.0,4.0,81,0.00,,,0.00,meteohub,2013-10-20 06:13:00,
2013-10-20 01:18:00,32.2,27.3,29.65,South,180,4.0,4.0,82,0.00,,,0.00,meteohub,2013-10-20 06:18:00,
2013-10-20 01:23:00,32.4,27.5,29.65,South,180,8.0,8.0,82,0.00,,,0.00,meteohub,2013-10-20 06:23:00,
2013-10-20 01:28:00,32.7,27.9,29.65,South,180,8.0,10.0,82,0.00,,,0.00,meteohub,2013-10-20 06:28:00,
2013-10-20 01:33:00,33.1,28.2,29.65,South,180,9.0,10.0,82,0.00,,,0.00,meteohub,2013-10-20 06:33:00,
2013-10-20 01:38:00,33.3,28.4,29.65,SSE,158,7.0,10.0,82,0.00,,,0.00,meteohub,2013-10-20 06:38:00,
2013-10-20 01:43:00,33.3,28.4,29.65,South,180,8.0,10.0,82,0.00,,,0.00,meteohub,2013-10-20 06:43:00,
2013-10-20 01:48:00,33.4,28.6,29.65,South,180,8.0,10.0,82,0.00,,,0.00,meteohub,2013-10-20 06:48:00,
2013-10-20 01:53:00,33.6,28.8,29.65,South,180,8.0,8.0,82,0.00,,,0.00,meteohub,2013-10-20 06:53:00,
2013-10-20 01:58:00,33.8,28.6,29.65,South,180,8.0,8.0,81,0.00,,,0.00,meteohub,2013-10-20 06:58:00,
2013-10-20 02:03:00,33.8,28.6,29.65,South,180,8.0,8.0,81,0.00,,,0.00,meteohub,2013-10-20 07:03:00,
2013-10-20 02:08:00,33.6,28.8,29.65,South,180,6.0,10.0,82,0.00,,,0.00,meteohub,2013-10-20 07:08:00,
2013-10-20 02:13:00,33.4,28.6,29.65,South,180,7.0,10.0,82,0.00,,,0.00,meteohub,2013-10-20 07:13:00,
2013-10-20 02:18:00,33.4,28.6,29.64,South,180,8.0,10.0,82,0.00,,,0.00,meteohub,2013-10-20 07:18:00,
2013-10-20 02:23:00,33.4,28.6,29.64,South,180,6.0,10.0,82,0.00,,,0.00,meteohub,2013-10-20 07:23:00,
2013-10-20 02:29:00,33.4,28.6,29.64,South,180,7.0,10.0,82,0.00,,,0.00,meteohub,2013-10-20 07:29:00,
2013-10-20 02:34:00,33.6,28.8,29.64,South,180,8.0,10.0,82,0.00,,,0.00,meteohub,2013-10-20 07:34:00,
2013-10-20 02:39:00,33.8,28.6,29.64,South,180,7.0,8.0,81,0.00,,,0.00,meteohub,2013-10-20 07:39:00,
2013-10-20 02:44:00,33.8,28.6,29.65,South,180,6.0,8.0,81,0.00,,,0.00,meteohub,2013-10-20 07:44:00,
2013-10-20 02:49:00,34.0,28.8,29.65,South,180,7.0,8.0,81,0.00,,,0.00,meteohub,2013-10-20 07:49:00,
2013-10-20 02:54:00,34.2,28.9,29.65,South,180,8.0,8.0,81,0.00,,,0.00,meteohub,2013-10-20 07:54:00,
2013-10-20 02:59:00,34.3,29.1,29.65,South,180,12.0,12.0,81,0.00,,,0.00,meteohub,2013-10-20 07:59:00,
2013-10-20 03:04:00,34.5,29.3,29.65,South,180,8.0,13.0,81,0.00,,,0.00,meteohub,2013-10-20 08:04:00,
2013-10-20 03:09:00,34.5,29.3,29.65,South,180,7.0,13.0,81,0.00,,,0.00,meteohub,2013-10-20 08:09:00,
2013-10-20 03:14:00,34.5,29.3,29.64,South,180,7.0,13.0,81,0.00,,,0.00,meteohub,2013-10-20 08:14:00,
2013-10-20 03:19:00,34.7,29.5,29.64,South,180,10.0,10.0,81,0.00,,,0.00,meteohub,2013-10-20 08:19:00,
2013-10-20 03:24:00,34.7,29.5,29.64,SSE,158,8.0,10.0,81,0.00,,,0.00,meteohub,2013-10-20 08:24:00,
2013-10-20 03:30:00,34.7,29.5,29.63,South,180,8.0,11.0,81,0.00,,,0.00,meteohub,2013-10-20 08:30:00,
2013-10-20 03:35:00,34.5,29.3,29.64,South,180,9.0,11.0,81,0.00,,,0.00,meteohub,2013-10-20 08:35:00,
2013-10-20 03:40:00,34.5,29.3,29.63,SE,135,11.0,11.0,81,0.00,,,0.00,meteohub,2013-10-20 08:40:00,
2013-10-20 03:45:00,34.5,29.3,29.63,South,180,11.0,11.0,81,0.00,,,0.00,meteohub,2013-10-20 08:45:00,
2013-10-20 03:50:00,34.3,29.1,29.62,SE,135,8.0,11.0,81,0.00,,,0.00,meteohub,2013-10-20 08:50:00,
2013-10-20 03:55:00,34.3,29.1,29.62,SE,135,9.0,11.0,81,0.00,,,0.00,meteohub,2013-10-20 08:55:00,
2013-10-20 04:00:00,34.3,29.5,29.62,SSE,158,8.0,11.0,82,0.00,,,0.00,meteohub,2013-10-20 09:00:00,
2013-10-20 04:05:00,34.3,29.5,29.61,South,180,11.0,11.0,82,0.00,,,0.00,meteohub,2013-10-20 09:05:00,
2013-10-20 04:10:00,34.3,29.5,29.61,SE,135,11.0,11.0,82,0.00,,,0.00,meteohub,2013-10-20 09:10:00,
2013-10-20 04:15:00,34.3,29.7,29.61,SE,135,11.0,12.0,83,0.00,,,0.00,meteohub,2013-10-20 09:15:00,
2013-10-20 04:20:00,34.3,29.7,29.60,SE,135,12.0,12.0,83,0.00,,,0.00,meteohub,2013-10-20 09:20:00,
2013-10-20 04:25:00,34.3,29.7,29.60,South,180,12.0,13.0,83,0.00,,,0.00,meteohub,2013-10-20 09:25:00,
2013-10-20 04:30:00,34.3,30.0,29.60,SE,135,14.0,14.0,84,0.00,,,0.00,meteohub,2013-10-20 09:30:00,
2013-10-20 04:35:00,34.3,30.0,29.60,South,180,12.0,14.0,84,0.00,,,0.00,meteohub,2013-10-20 09:35:00,
2013-10-20 04:40:00,34.3,30.4,29.60,SSE,158,12.0,15.0,85,0.00,,,0.00,meteohub,2013-10-20 09:40:00,
2013-10-20 04:45:00,34.3,30.4,29.60,SE,135,11.0,15.0,85,0.00,,,0.00,meteohub,2013-10-20 09:45:00,
2013-10-20 04:51:00,34.3,30.4,29.60,SE,135,12.0,15.0,85,0.00,,,0.00,meteohub,2013-10-20 09:51:00,
2013-10-20 04:56:00,34.3,30.4,29.59,South,180,11.0,15.0,85,0.00,,,0.00,meteohub,2013-10-20 09:56:00,
2013-10-20 05:01:00,34.3,30.6,29.59,SE,135,15.0,15.0,86,0.00,,,0.00,meteohub,2013-10-20 10:01:00,
2013-10-20 05:06:00,34.3,30.6,29.59,SSE,158,13.0,15.0,86,0.00,,,0.00,meteohub,2013-10-20 10:06:00,
2013-10-20 05:11:00,34.5,30.7,29.59,SE,135,14.0,15.0,86,0.00,,,0.00,meteohub,2013-10-20 10:11:00,
2013-10-20 05:16:00,34.5,30.7,29.58,SE,135,13.0,15.0,86,0.00,,,0.00,meteohub,2013-10-20 10:16:00,
2013-10-20 05:21:00,34.5,30.7,29.57,SSE,158,12.0,15.0,86,0.00,,,0.00,meteohub,2013-10-20 10:21:00,
2013-10-20 05:26:00,34.5,30.7,29.57,SE,135,14.0,17.0,86,0.00,,,0.00,meteohub,2013-10-20 10:26:00,
2013-10-20 05:31:00,34.5,30.7,29.57,SE,135,15.0,17.0,86,0.00,,,0.00,meteohub,2013-10-20 10:31:00,
2013-10-20 05:36:00,34.7,30.9,29.57,SE,135,12.0,17.0,86,0.00,,,0.00,meteohub,2013-10-20 10:36:00,
2013-10-20 05:41:00,34.7,30.9,29.57,South,180,15.0,16.0,86,0.00,,,0.00,meteohub,2013-10-20 10:41:00,
2013-10-20 05:46:00,34.7,30.9,29.57,SE,135,12.0,15.0,86,0.00,,,0.00,meteohub,2013-10-20 10:46:00,
2013-10-20 05:51:00,34.7,31.3,29.57,SE,135,14.0,15.0,87,0.00,,,0.00,meteohub,2013-10-20 10:51:00,
2013-10-20 05:56:00,34.7,31.3,29.56,SE,135,14.0,15.0,87,0.00,,,0.00,meteohub,2013-10-20 10:56:00,
2013-10-20 06:01:00,34.7,31.3,29.56,SE,135,14.0,15.0,87,0.00,,,0.00,meteohub,2013-10-20 11:01:00,
2013-10-20 06:06:00,34.7,31.3,29.57,SE,135,11.0,15.0,87,0.00,,,0.00,meteohub,2013-10-20 11:06:00,
2013-10-20 06:12:00,34.7,31.3,29.56,SE,135,12.0,15.0,87,0.00,,,0.00,meteohub,2013-10-20 11:12:00,
2013-10-20 06:17:00,34.7,31.3,29.56,SE,135,11.0,14.0,87,0.00,,,0.00,meteohub,2013-10-20 11:17:00,
2013-10-20 06:22:00,34.7,31.3,29.56,South,180,11.0,14.0,87,0.00,,,0.00,meteohub,2013-10-20 11:22:00,
2013-10-20 06:27:00,34.7,31.3,29.56,SE,135,11.0,13.0,87,0.00,,,0.00,meteohub,2013-10-20 11:27:00,
2013-10-20 06:32:00,34.7,31.3,29.55,SSE,158,10.0,14.0,87,0.00,,,0.00,meteohub,2013-10-20 11:32:00,
2013-10-20 06:37:00,34.9,31.5,29.56,SE,135,11.0,14.0,87,0.00,,,0.00,meteohub,2013-10-20 11:37:00,
2013-10-20 06:42:00,34.9,31.5,29.55,SSE,158,13.0,13.0,87,0.00,,,0.00,meteohub,2013-10-20 11:42:00,
2013-10-20 06:47:00,34.9,31.5,29.56,SE,135,14.0,14.0,87,0.00,,,0.00,meteohub,2013-10-20 11:47:00,
2013-10-20 06:52:00,34.9,31.5,29.55,SE,135,12.0,14.0,87,0.00,,,0.00,meteohub,2013-10-20 11:52:00,
2013-10-20 06:57:00,34.9,31.5,29.56,SE,135,12.0,15.0,87,0.00,,,0.00,meteohub,2013-10-20 11:57:00,
2013-10-20 07:02:00,35.1,31.6,29.55,SSE,158,13.0,15.0,87,0.00,,,0.00,meteohub,2013-10-20 12:02:00,
2013-10-20 07:07:00,35.1,31.6,29.55,South,180,10.0,15.0,87,0.00,,,0.00,meteohub,2013-10-20 12:07:00,
2013-10-20 07:12:00,35.1,31.6,29.55,SE,135,10.0,14.0,87,0.00,,,0.00,meteohub,2013-10-20 12:12:00,
2013-10-20 07:17:00,35.1,31.6,29.55,SE,135,10.0,13.0,87,0.00,,,0.00,meteohub,2013-10-20 12:17:00,
2013-10-20 07:22:00,35.1,31.6,29.55,SE,135,12.0,13.0,87,0.00,,,0.00,meteohub,2013-10-20 12:22:00,
2013-10-20 07:28:00,35.1,31.6,29.55,SE,135,11.0,13.0,87,0.00,,,0.00,meteohub,2013-10-20 12:28:00,
2013-10-20 07:33:00,35.1,31.6,29.55,SE,135,11.0,13.0,87,0.00,,,0.00,meteohub,2013-10-20 12:33:00,
2013-10-20 07:38:00,35.1,31.6,29.55,SE,135,14.0,15.0,87,0.00,,,0.00,meteohub,2013-10-20 12:38:00,
2013-10-20 07:43:00,35.1,31.6,29.54,South,180,13.0,16.0,87,0.00,,,0.00,meteohub,2013-10-20 12:43:00,
2013-10-20 07:48:00,35.1,31.6,29.54,SE,135,15.0,16.0,87,0.00,,,0.00,meteohub,2013-10-20 12:48:00,
2013-10-20 07:53:00,35.1,31.6,29.54,SE,135,13.0,17.0,87,0.00,,,0.00,meteohub,2013-10-20 12:53:00,
2013-10-20 07:58:00,35.1,31.6,29.54,SE,135,14.0,17.0,87,0.00,,,0.00,meteohub,2013-10-20 12:58:00,
2013-10-20 08:03:00,35.1,31.6,29.53,SE,135,15.0,17.0,87,0.00,,,0.00,meteohub,2013-10-20 13:03:00,
2013-10-20 08:08:00,35.1,31.6,29.53,SE,135,13.0,19.0,87,0.00,,,0.00,meteohub,2013-10-20 13:08:00,
2013-10-20 08:13:00,35.1,31.6,29.53,SE,135,15.0,19.0,87,0.00,,,0.00,meteohub,2013-10-20 13:13:00,
2013-10-20 08:18:00,35.1,31.6,29.54,SE,135,17.0,19.0,87,0.00,,,0.00,meteohub,2013-10-20 13:18:00,
2013-10-20 08:24:00,35.2,31.8,29.53,South,180,17.0,18.0,87,0.00,,,0.00,meteohub,2013-10-20 13:24:00,
2013-10-20 08:29:00,35.2,31.8,29.53,SE,135,18.0,19.0,87,0.00,,,0.00,meteohub,2013-10-20 13:29:00,
2013-10-20 08:34:00,35.2,31.8,29.53,SE,135,17.0,19.0,87,0.00,,,0.00,meteohub,2013-10-20 13:34:00,
2013-10-20 08:39:00,35.2,31.8,29.53,SE,135,16.0,20.0,87,0.00,,,0.00,meteohub,2013-10-20 13:39:00,
2013-10-20 08:44:00,35.2,32.0,29.54,SE,135,15.0,20.0,88,0.00,,,0.00,meteohub,2013-10-20 13:44:00,
2013-10-20 08:49:00,35.2,32.0,29.54,SE,135,15.0,20.0,88,0.00,,,0.00,meteohub,2013-10-20 13:49:00,
2013-10-20 08:54:00,35.2,32.0,29.53,SSE,158,15.0,18.0,88,0.00,,,0.00,meteohub,2013-10-20 13:54:00,
2013-10-20 08:59:00,35.2,32.0,29.53,South,180,15.0,17.0,88,0.00,,,0.00,meteohub,2013-10-20 13:59:00,
2013-10-20 09:04:00,35.4,32.2,29.53,SSE,158,15.0,17.0,88,0.00,,,0.00,meteohub,2013-10-20 14:04:00,
2013-10-20 09:09:00,35.4,32.2,29.53,SE,135,15.0,17.0,88,0.00,,,0.00,meteohub,2013-10-20 14:09:00,
2013-10-20 09:14:00,35.6,32.2,29.53,SSE,158,15.0,17.0,87,0.00,,,0.00,meteohub,2013-10-20 14:14:00,
2013-10-20 09:19:00,35.8,32.5,29.53,SE,135,17.0,17.0,88,0.00,,,0.00,meteohub,2013-10-20 14:19:00,
2013-10-20 09:24:00,35.8,32.5,29.52,SE,135,15.0,17.0,88,0.00,,,0.00,meteohub,2013-10-20 14:24:00,
2013-10-20 09:29:00,36.0,32.7,29.53,South,180,16.0,19.0,88,0.00,,,0.00,meteohub,2013-10-20 14:29:00,
2013-10-20 09:34:00,36.1,32.9,29.53,SE,135,13.0,19.0,88,0.00,,,0.00,meteohub,2013-10-20 14:34:00,
2013-10-20 09:40:00,36.7,33.4,29.52,South,180,14.0,19.0,88,0.00,,,0.00,meteohub,2013-10-20 14:40:00,
2013-10-20 09:45:00,37.2,34.0,29.52,South,180,16.0,17.0,88,0.00,,,0.00,meteohub,2013-10-20 14:45:00,
2013-10-20 09:50:00,37.9,35.8,29.52,South,180,17.0,19.0,92,0.00,,,0.00,meteohub,2013-10-20 14:50:00,
2013-10-20 09:55:00,38.7,36.5,29.52,South,180,15.0,19.0,92,0.00,,,0.00,meteohub,2013-10-20 14:55:00,
2013-10-20 10:00:00,38.8,36.7,29.52,SE,135,19.0,20.0,92,0.00,,,0.00,meteohub,2013-10-20 15:00:00,
2013-10-20 10:05:00,39.0,36.9,29.52,SE,135,16.0,20.0,92,0.00,,,0.00,meteohub,2013-10-20 15:05:00,
2013-10-20 10:10:00,39.7,37.4,29.52,South,180,14.0,19.0,91,0.00,,,0.00,meteohub,2013-10-20 15:10:00,
2013-10-20 10:15:00,39.7,37.4,29.51,South,180,15.0,18.0,91,0.00,,,0.00,meteohub,2013-10-20 15:15:00,
2013-10-20 10:20:00,40.3,37.6,29.51,South,180,15.0,20.0,90,0.00,,,0.00,meteohub,2013-10-20 15:20:00,
2013-10-20 10:25:00,40.8,38.1,29.51,SE,135,15.0,20.0,90,0.00,,,0.00,meteohub,2013-10-20 15:25:00,
2013-10-20 10:30:00,41.4,38.3,29.50,South,180,18.0,20.0,89,0.00,,,0.00,meteohub,2013-10-20 15:30:00,
2013-10-20 10:35:00,42.1,39.0,29.50,South,180,17.0,18.0,89,0.00,,,0.00,meteohub,2013-10-20 15:35:00,
2013-10-20 10:40:00,43.0,39.7,29.50,South,180,17.0,18.0,88,0.00,,,0.00,meteohub,2013-10-20 15:40:00,
2013-10-20 10:45:00,43.7,40.5,29.49,South,180,13.0,18.0,88,0.00,,,0.00,meteohub,2013-10-20 15:45:00,
2013-10-20 10:50:00,44.2,41.0,29.49,South,180,15.0,17.0,88,0.00,,,0.00,meteohub,2013-10-20 15:50:00,
2013-10-20 10:56:00,44.4,40.8,29.50,South,180,14.0,17.0,87,0.00,,,0.00,meteohub,2013-10-20 15:56:00,
2013-10-20 11:01:00,44.4,40.5,29.49,South,180,11.0,16.0,86,0.00,,,0.00,meteohub,2013-10-20 16:01:00,
2013-10-20 11:06:00,44.8,40.5,29.50,South,180,13.0,17.0,85,0.00,,,0.00,meteohub,2013-10-20 16:06:00,
2013-10-20 11:11:00,45.0,40.5,29.50,South,180,15.0,17.0,84,0.00,,,0.00,meteohub,2013-10-20 16:11:00,
2013-10-20 11:16:00,44.6,39.7,29.50,South,180,11.0,17.0,83,0.00,,,0.00,meteohub,2013-10-20 16:16:00,
2013-10-20 11:21:00,44.6,39.7,29.49,South,180,12.0,15.0,83,0.00,,,0.00,meteohub,2013-10-20 16:21:00,
2013-10-20 11:26:00,45.0,40.1,29.49,WSW,248,11.0,15.0,83,0.00,,,0.00,meteohub,2013-10-20 16:26:00,
2013-10-20 11:31:00,45.3,40.5,29.49,South,180,9.0,15.0,83,0.00,,,0.00,meteohub,2013-10-20 16:31:00,
2013-10-20 11:36:00,45.7,40.8,29.49,WSW,248,9.0,15.0,83,0.00,,,0.00,meteohub,2013-10-20 16:36:00,
2013-10-20 11:40:00,45.9,41.0,29.50,SSW,203,11.0,15.0,83,0.00,,,0.00,meteohub,2013-10-20 16:40:00,
2013-10-20 11:45:00,45.7,40.8,29.49,NW,315,8.0,15.0,83,0.00,,,0.00,meteohub,2013-10-20 16:45:00,
2013-10-20 11:50:00,45.7,40.8,29.49,SW,225,8.0,12.0,83,0.00,,,0.00,meteohub,2013-10-20 16:50:00,
2013-10-20 11:55:00,45.9,41.0,29.49,WSW,248,10.0,11.0,83,0.00,,,0.00,meteohub,2013-10-20 16:55:00,
2013-10-20 12:00:00,46.0,41.2,29.49,SW,225,7.0,11.0,83,0.00,,,0.00,meteohub,2013-10-20 17:00:00,
2013-10-20 12:05:00,46.2,41.7,29.49,SW,225,12.0,12.0,84,0.00,,,0.00,meteohub,2013-10-20 17:05:00,
2013-10-20 12:10:00,46.2,41.7,29.49,West,270,9.0,12.0,84,0.00,,,0.00,meteohub,2013-10-20 17:10:00,
2013-10-20 12:15:00,46.2,41.7,29.49,West,270,9.0,12.0,84,0.00,,,0.00,meteohub,2013-10-20 17:15:00,
2013-10-20 12:20:00,46.4,41.9,29.49,West,270,8.0,12.0,84,0.00,,,0.00,meteohub,2013-10-20 17:20:00,
2013-10-20 12:25:00,46.6,42.1,29.49,West,270,8.0,11.0,84,0.00,,,0.00,meteohub,2013-10-20 17:25:00,
2013-10-20 12:30:00,46.6,42.1,29.49,West,270,14.0,14.0,84,0.00,,,0.00,meteohub,2013-10-20 17:30:00,
2013-10-20 12:36:00,46.6,42.1,29.49,West,270,15.0,15.0,84,0.00,,,0.00,meteohub,2013-10-20 17:36:00,
2013-10-20 12:41:00,46.6,42.3,29.49,West,270,12.0,15.0,85,0.00,,,0.00,meteohub,2013-10-20 17:41:00,
2013-10-20 12:46:00,46.4,42.1,29.49,West,270,14.0,15.0,85,0.00,,,0.00,meteohub,2013-10-20 17:46:00,
2013-10-20 12:51:00,46.4,42.1,29.49,West,270,17.0,17.0,85,0.00,,,0.00,meteohub,2013-10-20 17:51:00,
2013-10-20 12:56:00,46.6,42.3,29.50,West,270,19.0,19.0,85,0.00,,,0.00,meteohub,2013-10-20 17:56:00,
2013-10-20 13:01:00,46.6,42.3,29.50,West,270,15.0,19.0,85,0.00,,,0.00,meteohub,2013-10-20 18:01:00,
2013-10-20 13:06:00,46.6,42.3,29.50,NW,315,17.0,19.0,85,0.00,,,0.00,meteohub,2013-10-20 18:06:00,
2013-10-20 13:11:00,46.4,41.9,29.50,West,270,21.0,22.0,84,0.00,,,0.00,meteohub,2013-10-20 18:11:00,
2013-10-20 13:16:00,46.0,41.5,29.50,NW,315,18.0,25.0,84,0.00,,,0.00,meteohub,2013-10-20 18:16:00,
2013-10-20 13:21:00,45.9,41.4,29.50,NW,315,20.0,25.0,84,0.00,,,0.00,meteohub,2013-10-20 18:21:00,
2013-10-20 13:26:00,45.5,41.0,29.51,NW,315,20.0,25.0,84,0.00,,,0.00,meteohub,2013-10-20 18:26:00,
2013-10-20 13:31:00,45.1,40.8,29.51,NW,315,22.0,22.0,85,0.00,,,0.00,meteohub,2013-10-20 18:31:00,
2013-10-20 13:36:00,45.1,41.2,29.51,NW,315,21.0,23.0,86,0.00,,,0.00,meteohub,2013-10-20 18:36:00,
2013-10-20 13:42:00,44.8,40.8,29.51,West,270,21.0,24.0,86,0.00,,,0.00,meteohub,2013-10-20 18:42:00,
2013-10-20 13:47:00,44.6,41.0,29.52,West,270,19.0,26.0,87,0.00,,,0.00,meteohub,2013-10-20 18:47:00,
2013-10-20 13:52:00,44.4,41.2,29.52,NW,315,21.0,26.0,88,0.00,,,0.00,meteohub,2013-10-20 18:52:00,
2013-10-20 13:57:00,44.6,41.2,29.52,NW,315,21.0,23.0,88,0.00,,,0.00,meteohub,2013-10-20 18:57:00,
2013-10-20 14:02:00,44.4,41.4,29.52,NW,315,21.0,23.0,89,0.00,,,0.00,meteohub,2013-10-20 19:02:00,
2013-10-20 14:07:00,44.6,41.5,29.52,NW,315,23.0,23.0,89,0.00,,,0.00,meteohub,2013-10-20 19:07:00,
2013-10-20 14:12:00,44.4,41.7,29.53,NW,315,23.0,23.0,90,0.00,,,0.00,meteohub,2013-10-20 19:12:00,
2013-10-20 14:17:00,44.2,41.5,29.53,NW,315,21.0,27.0,90,0.00,,,0.00,meteohub,2013-10-20 19:17:00,
2013-10-20 14:22:00,44.2,41.5,29.53,NW,315,21.0,27.0,90,0.00,,,0.00,meteohub,2013-10-20 19:22:00,
2013-10-20 14:27:00,44.1,41.4,29.53,NW,315,26.0,27.0,90,0.00,,,0.00,meteohub,2013-10-20 19:27:00,
2013-10-20 14:32:00,43.9,41.2,29.54,NW,315,22.0,26.0,90,0.00,,,0.00,meteohub,2013-10-20 19:32:00,
2013-10-20 14:37:00,43.7,41.0,29.54,West,270,23.0,27.0,90,0.00,,,0.00,meteohub,2013-10-20 19:37:00,
2013-10-20 14:42:00,43.3,40.6,29.54,NW,315,20.0,27.0,90,0.00,,,0.00,meteohub,2013-10-20 19:42:00,
2013-10-20 14:48:00,43.3,40.6,29.55,NNW,338,21.0,27.0,90,0.00,,,0.00,meteohub,2013-10-20 19:48:00,
2013-10-20 14:53:00,43.2,40.5,29.55,NW,315,27.0,27.0,90,0.00,,,0.00,meteohub,2013-10-20 19:53:00,
2013-10-20 14:58:00,43.3,40.6,29.56,NW,315,21.0,28.0,90,0.00,,,0.00,meteohub,2013-10-20 19:58:00,
2013-10-20 15:03:00,43.3,40.6,29.55,NW,315,21.0,28.0,90,0.00,,,0.00,meteohub,2013-10-20 20:03:00,
2013-10-20 15:08:00,43.3,40.3,29.55,NW,315,20.0,28.0,89,0.00,,,0.00,meteohub,2013-10-20 20:08:00,
2013-10-20 15:13:00,43.3,40.3,29.56,NW,315,23.0,26.0,89,0.00,,,0.00,meteohub,2013-10-20 20:13:00,
2013-10-20 15:18:00,43.3,40.3,29.56,NW,315,21.0,26.0,89,0.00,,,0.00,meteohub,2013-10-20 20:18:00,
2013-10-20 15:23:00,43.2,40.1,29.57,North,0,23.0,26.0,89,0.00,,,0.00,meteohub,2013-10-20 20:23:00,
2013-10-20 15:28:00,43.0,39.7,29.57,NW,315,23.0,27.0,88,0.00,,,0.00,meteohub,2013-10-20 20:28:00,
2013-10-20 15:33:00,43.0,39.7,29.57,NW,315,23.0,29.0,88,0.00,,,0.00,meteohub,2013-10-20 20:33:00,
2013-10-20 15:38:00,42.6,39.4,29.58,NW,315,29.0,29.0,88,0.00,,,0.00,meteohub,2013-10-20 20:38:00,
2013-10-20 15:43:00,42.3,39.0,29.59,WNW,293,22.0,29.0,88,0.00,,,0.00,meteohub,2013-10-20 20:43:00,
2013-10-20 15:48:00,42.1,38.8,29.59,NW,315,24.0,30.0,88,0.00,,,0.00,meteohub,2013-10-20 20:48:00,
2013-10-20 15:53:00,42.1,38.8,29.59,NW,315,24.0,30.0,88,0.00,,,0.00,meteohub,2013-10-20 20:53:00,
2013-10-20 15:59:00,41.7,38.5,29.60,NW,315,25.0,29.0,88,0.00,,,0.00,meteohub,2013-10-20 20:59:00,
2013-10-20 16:04:00,41.5,38.3,29.60,NW,315,30.0,30.0,88,0.00,,,0.00,meteohub,2013-10-20 21:04:00,
2013-10-20 16:09:00,41.5,38.3,29.60,NW,315,29.0,29.0,88,0.00,,,0.00,meteohub,2013-10-20 21:09:00,
2013-10-20 16:14:00,41.5,38.3,29.62,NW,315,22.0,30.0,88,0.00,,,0.00,meteohub,2013-10-20 21:14:00,
2013-10-20 16:19:00,41.4,38.1,29.61,NW,315,23.0,30.0,88,0.00,,,0.00,meteohub,2013-10-20 21:19:00,
2013-10-20 16:24:00,41.2,37.9,29.61,North,0,24.0,29.0,88,0.00,,,0.00,meteohub,2013-10-20 21:24:00,
2013-10-20 16:29:00,41.0,37.8,29.61,NW,315,21.0,27.0,88,0.00,,,0.00,meteohub,2013-10-20 21:29:00,
2013-10-20 16:34:00,40.8,37.8,29.62,NW,315,26.0,27.0,89,0.00,,,0.00,meteohub,2013-10-20 21:34:00,
2013-10-20 16:39:00,40.8,37.8,29.62,North,0,23.0,27.0,89,0.00,,,0.00,meteohub,2013-10-20 21:39:00,
2013-10-20 16:44:00,40.8,37.8,29.63,North,0,27.0,27.0,89,0.00,,,0.00,meteohub,2013-10-20 21:44:00,
2013-10-20 16:49:00,40.8,37.8,29.64,North,0,25.0,27.0,89,0.00,,,0.00,meteohub,2013-10-20 21:49:00,
2013-10-20 16:54:00,40.8,37.6,29.64,NW,315,28.0,29.0,88,0.00,,,0.00,meteohub,2013-10-20 21:54:00,
2013-10-20 16:59:00,40.6,36.9,29.64,North,0,26.0,29.0,86,0.00,,,0.00,meteohub,2013-10-20 21:59:00,
2013-10-20 17:04:00,40.5,36.7,29.65,NW,315,24.0,29.0,86,0.00,,,0.00,meteohub,2013-10-20 22:04:00,
2013-10-20 17:09:00,40.5,36.3,29.65,North,0,27.0,29.0,85,0.00,,,0.00,meteohub,2013-10-20 22:09:00,
2013-10-20 17:15:00,40.5,36.3,29.65,NW,315,24.0,29.0,85,0.00,,,0.00,meteohub,2013-10-20 22:15:00,
2013-10-20 17:20:00,40.3,36.1,29.66,NW,315,28.0,29.0,85,0.00,,,0.00,meteohub,2013-10-20 22:20:00,
2013-10-20 17:25:00,40.1,36.0,29.66,North,0,24.0,27.0,85,0.00,,,0.00,meteohub,2013-10-20 22:25:00,
2013-10-20 17:30:00,40.1,35.6,29.66,North,0,23.0,28.0,84,0.00,,,0.00,meteohub,2013-10-20 22:30:00,
2013-10-20 17:35:00,40.1,35.6,29.67,North,0,28.0,28.0,84,0.00,,,0.00,meteohub,2013-10-20 22:35:00,
2013-10-20 17:40:00,39.7,35.1,29.68,North,0,23.0,28.0,83,0.00,,,0.00,meteohub,2013-10-20 22:40:00,
2013-10-20 17:45:00,39.7,35.1,29.68,NW,315,22.0,28.0,83,0.00,,,0.00,meteohub,2013-10-20 22:45:00,
2013-10-20 17:50:00,39.7,35.1,29.68,North,0,21.0,28.0,83,0.00,,,0.00,meteohub,2013-10-20 22:50:00,
2013-10-20 17:55:00,39.7,35.2,29.69,North,0,24.0,27.0,84,0.00,,,0.00,meteohub,2013-10-20 22:55:00,
2013-10-20 18:00:00,39.7,35.2,29.70,NNW,338,18.0,27.0,84,0.00,,,0.00,meteohub,2013-10-20 23:00:00,
2013-10-20 18:05:00,39.6,35.4,29.70,WNW,293,27.0,27.0,85,0.00,,,0.00,meteohub,2013-10-20 23:05:00,
2013-10-20 18:10:00,39.4,34.9,29.70,North,0,19.0,27.0,84,0.00,,,0.00,meteohub,2013-10-20 23:10:00,
2013-10-20 18:15:00,39.4,34.9,29.71,North,0,22.0,27.0,84,0.00,,,0.00,meteohub,2013-10-20 23:15:00,
2013-10-20 18:20:00,39.4,34.9,29.71,NW,315,17.0,27.0,84,0.00,,,0.00,meteohub,2013-10-20 23:20:00,
2013-10-20 18:25:00,39.4,34.9,29.71,North,0,14.0,26.0,84,0.00,,,0.00,meteohub,2013-10-20 23:25:00,
2013-10-20 18:30:00,39.2,34.7,29.71,North,0,19.0,26.0,84,0.00,,,0.00,meteohub,2013-10-20 23:30:00,
2013-10-20 18:35:00,39.0,34.9,29.71,North,0,18.0,21.0,85,0.00,,,0.00,meteohub,2013-10-20 23:35:00,
2013-10-20 18:41:00,38.8,34.7,29.72,North,0,13.0,21.0,85,0.00,,,0.00,meteohub,2013-10-20 23:41:00,
2013-10-20 18:46:00,38.7,34.5,29.73,North,0,11.0,21.0,85,0.00,,,0.00,meteohub,2013-10-20 23:46:00,
2013-10-20 18:51:00,38.3,34.5,29.73,NW,315,13.0,18.0,86,0.00,,,0.00,meteohub,2013-10-20 23:51:00,
2013-10-20 18:56:00,38.1,34.3,29.73,NW,315,13.0,15.0,86,0.00,,,0.00,meteohub,2013-10-20 23:56:00,
2013-10-20 19:01:00,37.9,34.2,29.73,North,0,12.0,15.0,86,0.00,,,0.00,meteohub,2013-10-21 00:01:00,
2013-10-20 19:06:00,37.8,34.0,29.73,North,0,11.0,15.0,86,0.00,,,0.00,meteohub,2013-10-21 00:06:00,
2013-10-20 19:11:00,37.6,34.0,29.74,North,0,11.0,15.0,87,0.00,,,0.00,meteohub,2013-10-21 00:11:00,
2013-10-20 19:16:00,37.6,34.0,29.74,NW,315,10.0,13.0,87,0.00,,,0.00,meteohub,2013-10-21 00:16:00,
2013-10-20 19:21:00,37.6,34.0,29.75,North,0,11.0,13.0,87,0.00,,,0.00,meteohub,2013-10-21 00:21:00,
2013-10-20 19:26:00,37.6,34.0,29.75,NW,315,10.0,11.0,87,0.00,,,0.00,meteohub,2013-10-21 00:26:00,
2013-10-20 19:31:00,37.6,34.0,29.75,NW,315,11.0,11.0,87,0.00,,,0.00,meteohub,2013-10-21 00:31:00,
2013-10-20 19:36:00,37.8,34.5,29.75,WNW,293,13.0,13.0,88,0.00,,,0.00,meteohub,2013-10-21 00:36:00,
2013-10-20 19:41:00,37.9,34.7,29.75,NW,315,11.0,13.0,88,0.00,,,0.00,meteohub,2013-10-21 00:41:00,
2013-10-20 19:46:00,38.1,34.9,29.76,West,270,13.0,14.0,88,0.00,,,0.00,meteohub,2013-10-21 00:46:00,
2013-10-20 19:51:00,38.1,34.9,29.76,NW,315,11.0,15.0,88,0.00,,,0.00,meteohub,2013-10-21 00:51:00,
2013-10-20 19:57:00,38.3,35.1,29.77,NW,315,14.0,15.0,88,0.00,,,0.00,meteohub,2013-10-21 00:57:00,
2013-10-20 20:02:00,38.3,35.1,29.77,NW,315,15.0,15.0,88,0.00,,,0.00,meteohub,2013-10-21 01:02:00,
2013-10-20 20:07:00,38.5,35.6,29.77,NW,315,12.0,15.0,89,0.00,,,0.00,meteohub,2013-10-21 01:07:00,
2013-10-20 20:12:00,38.5,35.6,29.77,NW,315,19.0,19.0,89,0.00,,,0.00,meteohub,2013-10-21 01:12:00,
2013-10-20 20:17:00,38.7,35.4,29.77,NW,315,22.0,22.0,88,0.00,,,0.00,meteohub,2013-10-21 01:17:00,
2013-10-20 20:22:00,38.7,35.4,29.77,NW,315,24.0,24.0,88,0.00,,,0.00,meteohub,2013-10-21 01:22:00,
2013-10-20 20:27:00,38.7,35.4,29.78,NW,315,20.0,24.0,88,0.00,,,0.00,meteohub,2013-10-21 01:27:00,
2013-10-20 20:32:00,38.5,35.2,29.78,NW,315,23.0,24.0,88,0.00,,,0.00,meteohub,2013-10-21 01:32:00,
2013-10-20 20:37:00,38.5,35.2,29.78,NW,315,21.0,24.0,88,0.00,,,0.00,meteohub,2013-10-21 01:37:00,
2013-10-20 20:42:00,38.3,34.7,29.78,NW,315,23.0,24.0,87,0.00,,,0.00,meteohub,2013-10-21 01:42:00,
2013-10-20 20:47:00,38.3,34.7,29.78,NW,315,22.0,24.0,87,0.00,,,0.00,meteohub,2013-10-21 01:47:00,
2013-10-20 20:52:00,38.3,34.7,29.78,NW,315,21.0,25.0,87,0.00,,,0.00,meteohub,2013-10-21 01:52:00,
2013-10-20 20:58:00,38.3,34.7,29.78,NW,315,23.0,25.0,87,0.00,,,0.00,meteohub,2013-10-21 01:58:00,
2013-10-20 21:03:00,38.3,34.7,29.78,NW,315,23.0,26.0,87,0.00,,,0.00,meteohub,2013-10-21 02:03:00,
2013-10-20 21:08:00,38.3,34.7,29.79,NW,315,19.0,26.0,87,0.00,,,0.00,meteohub,2013-10-21 02:08:00,
2013-10-20 21:13:00,38.1,34.9,29.79,NW,315,27.0,27.0,88,0.00,,,0.00,meteohub,2013-10-21 02:13:00,
2013-10-20 21:18:00,37.9,34.3,29.79,North,0,25.0,27.0,87,0.00,,,0.00,meteohub,2013-10-21 02:18:00,
2013-10-20 21:23:00,37.8,34.0,29.80,NW,315,24.0,27.0,86,0.00,,,0.00,meteohub,2013-10-21 02:23:00,
2013-10-20 21:28:00,37.6,33.3,29.80,NW,315,25.0,27.0,84,0.00,,,0.00,meteohub,2013-10-21 02:28:00,
2013-10-20 21:33:00,37.6,32.5,29.80,NW,315,23.0,30.0,82,0.00,,,0.00,meteohub,2013-10-21 02:33:00,
2013-10-20 21:38:00,37.4,32.4,29.80,NW,315,22.0,30.0,82,0.00,,,0.00,meteohub,2013-10-21 02:38:00,
2013-10-20 21:43:00,37.2,30.9,29.80,NW,315,21.0,30.0,78,0.00,,,0.00,meteohub,2013-10-21 02:43:00,
2013-10-20 21:48:00,36.9,30.6,29.81,NW,315,21.0,30.0,78,0.00,,,0.00,meteohub,2013-10-21 02:48:00,
2013-10-20 21:53:00,36.5,30.4,29.81,NW,315,25.0,27.0,78,0.00,,,0.00,meteohub,2013-10-21 02:53:00,
2013-10-20 21:58:00,36.1,29.7,29.81,NW,315,20.0,25.0,77,0.00,,,0.00,meteohub,2013-10-21 02:58:00,
2013-10-20 22:03:00,36.0,29.5,29.81,NW,315,17.0,25.0,77,0.00,,,0.00,meteohub,2013-10-21 03:03:00,
2013-10-20 22:09:00,35.6,29.5,29.82,WNW,293,16.0,25.0,78,0.00,,,0.00,meteohub,2013-10-21 03:09:00,
2013-10-20 22:14:00,35.4,29.5,29.81,West,270,21.0,25.0,79,0.00,,,0.00,meteohub,2013-10-21 03:14:00,
2013-10-20 22:19:00,35.4,29.5,29.81,NW,315,19.0,22.0,79,0.00,,,0.00,meteohub,2013-10-21 03:19:00,
2013-10-20 22:24:00,35.6,29.1,29.82,NW,315,17.0,23.0,77,0.00,,,0.00,meteohub,2013-10-21 03:24:00,
2013-10-20 22:29:00,36.0,29.1,29.81,NW,315,19.0,24.0,76,0.00,,,0.00,meteohub,2013-10-21 03:29:00,
2013-10-20 22:34:00,36.0,28.8,29.82,NW,315,20.0,24.0,75,0.00,,,0.00,meteohub,2013-10-21 03:34:00,
2013-10-20 22:39:00,36.0,28.4,29.82,NW,315,21.0,24.0,74,0.00,,,0.00,meteohub,2013-10-21 03:39:00,
2013-10-20 22:44:00,36.0,28.4,29.82,WNW,293,20.0,23.0,74,0.00,,,0.00,meteohub,2013-10-21 03:44:00,
2013-10-20 22:49:00,35.8,28.0,29.82,North,0,15.0,23.0,73,0.00,,,0.00,meteohub,2013-10-21 03:49:00,
2013-10-20 22:54:00,35.8,28.0,29.82,WNW,293,19.0,23.0,73,0.00,,,0.00,meteohub,2013-10-21 03:54:00,
2013-10-20 22:59:00,35.8,28.4,29.83,NW,315,15.0,21.0,74,0.00,,,0.00,meteohub,2013-10-21 03:59:00,
2013-10-20 23:01:00,35.8,28.4,29.82,NW,315,19.0,21.0,74,0.00,,,0.00,meteohub,2013-10-21 04:01:00,
2013-10-20 23:02:00,35.8,28.4,29.82,NW,315,19.0,21.0,74,0.00,,,0.00,meteohub,2013-10-21 04:02:00,
2013-10-20 23:04:00,35.6,27.9,29.83,NNW,338,19.0,21.0,73,0.00,,,0.00,meteohub,2013-10-21 04:04:00,
2013-10-20 23:05:00,35.6,27.9,29.83,NW,315,17.0,21.0,73,0.00,,,0.00,meteohub,2013-10-21 04:05:00,
2013-10-20 23:10:00,35.6,27.9,29.82,West,270,16.0,21.0,73,0.00,,,0.00,meteohub,2013-10-21 04:10:00,
2013-10-20 23:15:00,35.6,27.9,29.83,NW,315,17.0,21.0,73,0.00,,,0.00,meteohub,2013-10-21 04:15:00,
2013-10-20 23:20:00,35.6,27.5,29.83,NW,315,17.0,21.0,72,0.00,,,0.00,meteohub,2013-10-21 04:20:00,
2013-10-20 23:25:00,35.6,27.5,29.83,NW,315,17.0,21.0,72,0.00,,,0.00,meteohub,2013-10-21 04:25:00,
2013-10-20 23:30:00,35.6,27.9,29.83,NW,315,16.0,21.0,73,0.00,,,0.00,meteohub,2013-10-21 04:30:00,
2013-10-20 23:35:00,35.4,28.0,29.83,NW,315,17.0,18.0,74,0.00,,,0.00,meteohub,2013-10-21 04:35:00,
2013-10-20 23:40:00,35.4,28.0,29.83,NW,315,14.0,17.0,74,0.00,,,0.00,meteohub,2013-10-21 04:40:00,
2013-10-20 23:45:00,35.2,28.0,29.83,NW,315,14.0,17.0,75,0.00,,,0.00,meteohub,2013-10-21 04:45:00,
2013-10-20 23:50:00,35.2,28.0,29.83,West,270,14.0,17.0,75,0.00,,,0.00,meteohub,2013-10-21 04:50:00,
2013-10-20 23:55:00,35.1,27.9,29.83,NW,315,15.0,18.0,75,0.00,,,0.00,meteohub,2013-10-21 04:55:00,